Hourly Weather Cezaryn

Today, 12 June, Saturday

Time Temperature Precipitation Wind Pressure Humidity
00:00 +14°C° 0 mm 1 mps 748 mmHg 87%
01:00 +14°C° 0 mm 1 mps 748 mmHg 87%
02:00 +14°C° 0 mm 1 mps 748 mmHg 87%
03:00 +14°C° 0 mm 2 mps 748 mmHg 88%
04:00 +14°C° 0 mm 2 mps 748 mmHg 89%
05:00 +15°C° 0 mm 2 mps 748 mmHg 84%
06:00 +17°C° 0 mm 2 mps 748 mmHg 79%
07:00 +19°C° 0 mm 3 mps 748 mmHg 74%
08:00 +20°C° 0 mm 3 mps 748 mmHg 69%
09:00 +22°C° 0 mm 3 mps 747 mmHg 64%
10:00 +24°C° 0 mm 3 mps 747 mmHg 58%
11:00 +25°C° 0.2 mm 3 mps 746 mmHg 57%
12:00 +25°C° 0.2 mm 4 mps 746 mmHg 55%
13:00 +26°C° 0.2 mm 4 mps 745 mmHg 53%
14:00 +23°C° 0.7 mm 5 mps 745 mmHg 62%
15:00 +22°C° 0.7 mm 5 mps 744 mmHg 71%
16:00 +21°C° 0.7 mm 6 mps 744 mmHg 79%
17:00 +19°C° 2.2 mm 5 mps 744 mmHg 85%
18:00 +17°C° 2.2 mm 5 mps 744 mmHg 91%
19:00 +17°C° 2.2 mm 4 mps 744 mmHg 96%
20:00 +15°C° 2.2 mm 4 mps 744 mmHg 95%
21:00 +15°C° 2.2 mm 5 mps 744 mmHg 95%
22:00 +14°C° 2.2 mm 5 mps 744 mmHg 94%
23:00 +14°C° 0.3 mm 5 mps 744 mmHg 93%

Tomorrow, 13 June, Sunday

Time Temperature Precipitation Wind Pressure Humidity
00:00 +13°C° 0.3 mm 6 mps 745 mmHg 92%
01:00 +11°C° 0.3 mm 6 mps 745 mmHg 90%
02:00 +10°C° 0 mm 6 mps 745 mmHg 91%
03:00 +10°C° 0 mm 6 mps 746 mmHg 92%
04:00 +9°C° 0 mm 6 mps 746 mmHg 93%
05:00 +9°C° 0 mm 6 mps 746 mmHg 90%
06:00 +10°C° 0 mm 7 mps 747 mmHg 86%
07:00 +11°C° 0 mm 7 mps 747 mmHg 83%
08:00 +11°C° 0.1 mm 7 mps 748 mmHg 81%
09:00 +12°C° 0.1 mm 7 mps 748 mmHg 78%
10:00 +12°C° 0.1 mm 7 mps 748 mmHg 76%
11:00 +14°C° 0 mm 7 mps 748 mmHg 75%
12:00 +14°C° 0 mm 7 mps 749 mmHg 74%
13:00 +14°C° 0 mm 7 mps 749 mmHg 73%
14:00 +15°C° 0.1 mm 7 mps 749 mmHg 74%
15:00 +15°C° 0.1 mm 7 mps 749 mmHg 74%
16:00 +15°C° 0.1 mm 7 mps 749 mmHg 75%
17:00 +15°C° 0.4 mm 7 mps 749 mmHg 78%
18:00 +14°C° 0.4 mm 6 mps 750 mmHg 81%
19:00 +14°C° 0.4 mm 6 mps 750 mmHg 85%
20:00 +13°C° 0 mm 6 mps 750 mmHg 86%
21:00 +12°C° 0 mm 5 mps 751 mmHg 88%
22:00 +10°C° 0 mm 5 mps 751 mmHg 89%
23:00 +9°C° 0 mm 5 mps 751 mmHg 90%

Day after tomorrow, 14 June, Monday

Time Temperature Precipitation Wind Pressure Humidity
00:00 +9°C° 0 mm 5 mps 752 mmHg 90%
01:00 +8°C° 0 mm 4 mps 752 mmHg 91%
02:00 +8°C° 0 mm 4 mps 752 mmHg 91%
03:00 +8°C° 0 mm 4 mps 752 mmHg 92%
04:00 +7°C° 0 mm 4 mps 753 mmHg 92%
05:00 +10°C° 0 mm 4 mps 753 mmHg 86%
06:00 +12°C° 0 mm 5 mps 753 mmHg 79%
07:00 +13°C° 0 mm 5 mps 753 mmHg 73%
08:00 +15°C° 0 mm 5 mps 753 mmHg 67%
09:00 +16°C° 0 mm 5 mps 753 mmHg 60%
10:00 +17°C° 0 mm 5 mps 753 mmHg 54%
11:00 +19°C° 0 mm 5 mps 753 mmHg 52%
12:00 +19°C° 0 mm 5 mps 753 mmHg 50%
13:00 +20°C° 0 mm 5 mps 753 mmHg 48%
14:00 +19°C° 0 mm 4 mps 753 mmHg 52%
15:00 +19°C° 0 mm 4 mps 752 mmHg 56%
16:00 +18°C° 0 mm 3 mps 752 mmHg 59%
17:00 +17°C° 0 mm 2 mps 752 mmHg 64%
18:00 +16°C° 0 mm 2 mps 752 mmHg 69%
19:00 +16°C° 0 mm 1 mps 752 mmHg 73%
20:00 +14°C° 0 mm 1 mps 752 mmHg 75%
21:00 +13°C° 0 mm 1 mps 753 mmHg 77%
22:00 +12°C° 0 mm 1 mps 753 mmHg 79%
23:00 +12°C° 0 mm 1 mps 753 mmHg 80%

15 June, Tuesday

Time Temperature Precipitation Wind Pressure Humidity
00:00 +11°C° 0 mm 1 mps 753 mmHg 81%
01:00 +11°C° 0 mm 1 mps 753 mmHg 83%
02:00 +11°C° 0 mm 1 mps 753 mmHg 83%
03:00 +11°C° 0 mm 1 mps 753 mmHg 83%
04:00 +11°C° 0 mm 1 mps 753 mmHg 83%
05:00 +13°C° 0 mm 1 mps 753 mmHg 78%
06:00 +15°C° 0 mm 1 mps 753 mmHg 72%
07:00 +18°C° 0 mm 1 mps 753 mmHg 67%
08:00 +19°C° 0 mm 1 mps 753 mmHg 63%
09:00 +21°C° 0 mm 1 mps 753 mmHg 60%
10:00 +21°C° 0 mm 2 mps 753 mmHg 56%
11:00 +23°C° 0 mm 2 mps 753 mmHg 54%
12:00 +24°C° 0 mm 2 mps 753 mmHg 52%
13:00 +24°C° 0 mm 2 mps 753 mmHg 50%
14:00 +24°C° 0 mm 2 mps 752 mmHg 51%
15:00 +24°C° 0 mm 2 mps 752 mmHg 52%
16:00 +24°C° 0 mm 2 mps 752 mmHg 53%
17:00 +23°C° 0 mm 2 mps 752 mmHg 59%
18:00 +22°C° 0 mm 1 mps 752 mmHg 65%
19:00 +21°C° 0 mm 1 mps 752 mmHg 71%
20:00 +20°C° 0 mm 1 mps 752 mmHg 72%
21:00 +19°C° 0 mm 1 mps 752 mmHg 73%
22:00 +19°C° 0 mm 1 mps 752 mmHg 74%
23:00 +18°C° 0 mm 1 mps 752 mmHg 75%

16 June, Wednesday

Time Temperature Precipitation Wind Pressure Humidity
00:00 +18°C° 0 mm 1 mps 752 mmHg 76%
01:00 +18°C° 0 mm 1 mps 752 mmHg 77%
02:00 +17°C° 0 mm 2 mps 752 mmHg 80%
03:00 +17°C° 0 mm 2 mps 752 mmHg 83%
04:00 +17°C° 0 mm 2 mps 752 mmHg 86%
05:00 +18°C° 0 mm 2 mps 752 mmHg 85%
06:00 +19°C° 0 mm 2 mps 752 mmHg 84%
07:00 +20°C° 0 mm 2 mps 753 mmHg 82%
08:00 +20°C° 0.1 mm 2 mps 753 mmHg 79%
09:00 +21°C° 0.1 mm 2 mps 753 mmHg 75%
10:00 +23°C° 0.1 mm 2 mps 753 mmHg 72%
11:00 +23°C° 0.1 mm 2 mps 753 mmHg 69%
12:00 +24°C° 0.1 mm 2 mps 753 mmHg 67%
13:00 +24°C° 0.1 mm 3 mps 753 mmHg 64%
14:00 +25°C° 0 mm 2 mps 753 mmHg 62%
15:00 +25°C° 0 mm 2 mps 753 mmHg 61%
16:00 +25°C° 0 mm 2 mps 752 mmHg 59%
17:00 +24°C° 0 mm 2 mps 753 mmHg 63%
18:00 +23°C° 0 mm 2 mps 753 mmHg 68%
19:00 +20°C° 0 mm 3 mps 753 mmHg 72%
20:00 +19°C° 0 mm 3 mps 753 mmHg 71%
21:00 +17°C° 0 mm 3 mps 753 mmHg 70%
22:00 +16°C° 0 mm 3 mps 754 mmHg 69%
23:00 +15°C° 0 mm 2 mps 754 mmHg 71%

17 June, Thursday

Time Temperature Precipitation Wind Pressure Humidity
00:00 +15°C° 0 mm 2 mps 754 mmHg 73%
01:00 +14°C° 0 mm 2 mps 754 mmHg 75%
02:00 +14°C° 0 mm 2 mps 754 mmHg 77%
03:00 +14°C° 0 mm 2 mps 754 mmHg 80%
04:00 +13°C° 0 mm 2 mps 754 mmHg 83%
05:00 +15°C° 0 mm 2 mps 754 mmHg 78%
06:00 +17°C° 0 mm 2 mps 754 mmHg 73%
07:00 +19°C° 0 mm 3 mps 755 mmHg 68%
08:00 +20°C° 0 mm 3 mps 755 mmHg 63%
09:00 +22°C° 0 mm 3 mps 755 mmHg 58%
10:00 +24°C° 0 mm 3 mps 755 mmHg 53%
11:00 +25°C° 0 mm 3 mps 755 mmHg 51%
12:00 +25°C° 0 mm 3 mps 755 mmHg 48%
13:00 +26°C° 0 mm 3 mps 755 mmHg 45%
14:00 +26°C° 0 mm 3 mps 754 mmHg 46%
15:00 +26°C° 0 mm 3 mps 754 mmHg 47%
16:00 +26°C° 0 mm 3 mps 754 mmHg 47%
17:00 +25°C° 0 mm 3 mps 754 mmHg 56%
18:00 +22°C° 0 mm 3 mps 754 mmHg 64%
19:00 +21°C° 0 mm 3 mps 754 mmHg 72%
20:00 +19°C° 0 mm 3 mps 754 mmHg 75%
21:00 +18°C° 0 mm 3 mps 754 mmHg 77%
22:00 +17°C° 0 mm 3 mps 754 mmHg 79%
23:00 +16°C° 0 mm 3 mps 754 mmHg 82%
Show more

We Need Your Consent

Meteoprog and our Service Providers may store and access personal data such as cookies, device identifiers or other similar technologies on your device and process such data to personalise content and ads, as well as provide social media features and to analyse the traffic.

  • Store and/or access information on your device

    Cookies, device identifiers or other information can be stored or accessed on your device for the purposes indicated above.

  • Personalised ads and content, ad and content measurement, audience insights, and products development

    Ads and content can be personalised based on a profile. More data can be added to better personalise ads and content. Ad and content performance can be measured. Insights about the audience who saw the ads and content can be derived. Such data can be used to develop or improve user’s experience, systems and software.

By clicking ‘I Agree’ you will allow the use of indicated cookies, device identifiers, web beacons or other similar technologies. Your settings can be changed in the browser on your device.

For certain purposes, legitimate interests may be relied on, rather than consent. You can read more about this in our Privacy and Cookie Policy.